Cloud_Cover
0 0 0 0 0 0 0 0 77 52 6 2 0 0 0 5 5 5 5 5 5 100 100 83 16 96 88 92 43 99 100 100 100 100 92 100 100 100
0 0 0 0 0 0 0 0 0 0 4 0 0 0 1 5 5 5 5 5 5 100 100 99 100 100 100 76 5 25 69 97 100 100 100 100 100 100
0 0 0 3 0 0 0 0 0 0 4 0 0 0 0 0 0 1 5 5 5 2 11 100 100 23 92 55 5 5 27 100 75 100 100 100 100 100
0 0 4 3 0 2 5 3 0 5 4 0 2 5 5 5 0 0 0 4 5 0 0 1 0 0 0 82 44 5 5 98 85 94 100 100 100 100
0 0 0 0 0 0 5 5 5 5 5 21 6 1 5 4 5 5 0 1 0 0 0 0 0 0 0 0 78 0 5 5 100 98 83 100 46 100
0 0 0 1 2 0 4 5 5 5 5 21 13 4 2 2 5 16 7 5 3 5 1 0 0 0 0 0 21 7 0 5 20 100 100 100 99 99
5 5 5 4 2 0 0 1 4 5 5 18 31 23 4 4 5 6 33 24 35 5 5 3 0 0 0 0 0 0 0 0 5 30 53 93 100 100
5 5 5 6 6 5 5 20 6 18 5 8 5 8 5 5 2 5 5 0 6 11 18 5 5 0 0 16 0 0 0 0 0 3 4 3 5 11
5 5 5 5 5 52 74 56 47 18 43 23 82 87 14 5 5 3 5 44 5 1 22 41 4 0 0 0 4 51 28 5 2 0 0 0 1 5
20 6 5 5 5 6 58 60 98 83 63 96 100 100 95 43 10 25 23 26 6 89 100 98 3 0 0 0 0 3 24 92 5 4 0 0 0 3
100 100 98 89 26 22 46 38 89 85 29 29 89 100 100 100 97 37 98 100 100 76 90 100 54 0 5 2 0 0 1 93 96 79 94 4 0 1
100 100 100 100 100 90 60 35 23 22 28 63 99 100 97 97 100 100 100 100 100 100 100 45 45 5 5 5 3 0 14 94 34 18 100 100 7 5
60 61 68 99 100 100 73 95 98 99 100 60 83 71 63 91 100 74 83 100 100 100 100 100 100 78 11 16 6 5 5 5 5 4 100 100 100 6
100 100 88 93 91 95 100 100 100 96 65 26 56 77 90 90 100 100 100 100 100 100 100 100 100 100 100 100 98 36 5 5 5 5 7 20 64 99
5 6 6 5 5 5 5 96 100 100 100 88 87 98 89 99 100 100 100 100 100 100 100 100 100 100 100 100 100 100 100 100 100 93 26 5 6 8
5 5 5 4 4 5 5 5 20 46 100 100 100 92 99 100 100 100 100 100 100 100 100 100 100 100 100 100 100 100 100 100 100 100 100 100 100 99
5 5 5 5 5 5 5 5 5 13 99 100 100 100 100 100 100 100 100 100 100 100 100 100 100 100 100 100 100 100 100 100 100 100 100 100 100 100
5 5 5 5 5 5 5 5 5 40 100 100 100 100 100 100 100 100 100 100 100 100 100 100 100 100 100 100 100 100 100 100 100 100 90 100 100 100
6 5 5 5 5 5 5 5 5 37 100 100 100 100 100 100 100 100 100 100 100 100 100 100 100 100 100 100 96 96 100 100 100 100 100 100 100 100
5 5 5 5 5 5 5 5 5 65 89 100 100 100 100 100 99 100 100 100 100 100 100 100 100 100 100 98 99 85 100 100 96 89 88 99 98 99
5 6 6 10 12 5 5 5 5 39 100 100 96 97 100 98 99 100 100 100 100 100 100 100 100 99 93 98 99 72 64 97 91 73 96 91 91 99
87 90 43 35 52 20 18 36 73 80 85 92 100 100 100 100 99 100 100 100 100 100 100 100 100 100 100 100 100 100 100 83 86 100 99 100 100 94
100 100 92 50 38 34 97 99 100 100 100 100 100 100 100 100 100 100 100 100 100 100 100 100 100 100 100 100 100 100 99 100 100 93 100 100 100 100